Location: Newark
(54.2500°N, 9.1833°E)
Time: 06:06:29
(UTC+00:00)

Transit 4A - Pass Details

Date: 21 December 2019
Orbit: 871 x 973 km, 66.8° (Epoch: 20 January)

Event Time Altitude Azimuth Distance (km) Brightness Sun altitude
Rises 16:36:19 0° 262° (W) 3,564 12.6 -12.6°
Reaches altitude 10° 16:39:08 10° 272° (W) 2,607 11.4 -13.0°
Maximum altitude 16:44:32 33° 335° (NNW) 1,473 9.0 -13.7°
Enters shadow 16:48:59 14° 34° (NE) 2,287 9.5 -14.3°
